When you browse on this site, cookies collect data to enhance your experience and personalize the content and advertising you see.
Visit our Privacy Policy to learn more. By continuing to use the site, you agree to this use of cookies and data.

Hourly Weather Zhuravki

Today, 10 August, Monday

Time Temperature Precipitation Wind Pressure Humidity
00:00 +14°C° 0 mm 0 mps 743 mmHg 93%
01:00 +14°C° 0 mm 0 mps 743 mmHg 93%
02:00 +14°C° 0 mm 0 mps 743 mmHg 93%
03:00 +14°C° 0 mm 0 mps 743 mmHg 93%
04:00 +14°C° 0 mm 0 mps 743 mmHg 93%
05:00 +15°C° 0 mm 1 mps 743 mmHg 93%
06:00 +18°C° 0 mm 1 mps 743 mmHg 87%
07:00 +20°C° 0 mm 1 mps 743 mmHg 81%
08:00 +22°C° 0 mm 1 mps 743 mmHg 75%
09:00 +23°C° 0 mm 1 mps 743 mmHg 68%
10:00 +25°C° 0 mm 1 mps 743 mmHg 60%
11:00 +26°C° 0 mm 2 mps 743 mmHg 52%
12:00 +27°C° 0 mm 2 mps 742 mmHg 51%
13:00 +27°C° 0 mm 2 mps 742 mmHg 50%
14:00 +27°C° 0 mm 2 mps 741 mmHg 49%
15:00 +27°C° 0.2 mm 2 mps 741 mmHg 55%
16:00 +26°C° 0.2 mm 2 mps 741 mmHg 61%
17:00 +25°C° 0.2 mm 2 mps 741 mmHg 67%
18:00 +23°C° 0.4 mm 2 mps 741 mmHg 74%
19:00 +20°C° 0.4 mm 2 mps 741 mmHg 81%
20:00 +19°C° 0.4 mm 2 mps 741 mmHg 88%
21:00 +17°C° 0 mm 2 mps 741 mmHg 87%
22:00 +16°C° 0 mm 3 mps 741 mmHg 86%
23:00 +14°C° 0 mm 3 mps 741 mmHg 86%

Tomorrow, 11 August, Tuesday

Time Temperature Precipitation Wind Pressure Humidity
00:00 +13°C° 0 mm 3 mps 741 mmHg 89%
01:00 +12°C° 0 mm 3 mps 742 mmHg 93%
02:00 +10°C° 0 mm 3 mps 742 mmHg 97%
03:00 +10°C° 0 mm 3 mps 742 mmHg 96%
04:00 +10°C° 0 mm 3 mps 742 mmHg 95%
05:00 +10°C° 0 mm 3 mps 742 mmHg 95%
06:00 +11°C° 0 mm 3 mps 742 mmHg 89%
07:00 +13°C° 0 mm 3 mps 742 mmHg 82%
08:00 +14°C° 0 mm 4 mps 743 mmHg 76%
09:00 +14°C° 0.1 mm 4 mps 743 mmHg 75%
10:00 +14°C° 0.1 mm 4 mps 743 mmHg 74%
11:00 +14°C° 0.1 mm 4 mps 743 mmHg 72%
12:00 +14°C° 0.1 mm 4 mps 743 mmHg 72%
13:00 +14°C° 0.1 mm 4 mps 743 mmHg 72%
14:00 +15°C° 0.1 mm 4 mps 743 mmHg 71%
15:00 +14°C° 0.1 mm 4 mps 743 mmHg 73%
16:00 +14°C° 0.1 mm 4 mps 743 mmHg 74%
17:00 +14°C° 0.1 mm 4 mps 743 mmHg 75%
18:00 +14°C° 0 mm 4 mps 743 mmHg 76%
19:00 +13°C° 0 mm 4 mps 743 mmHg 77%
20:00 +13°C° 0 mm 4 mps 742 mmHg 78%
21:00 +12°C° 0 mm 4 mps 743 mmHg 79%
22:00 +12°C° 0 mm 4 mps 743 mmHg 80%
23:00 +12°C° 0 mm 4 mps 743 mmHg 82%

Day after tomorrow, 12 August, Wednesday

Time Temperature Precipitation Wind Pressure Humidity
00:00 +11°C° 0 mm 4 mps 743 mmHg 83%
01:00 +11°C° 0 mm 4 mps 743 mmHg 84%
02:00 +11°C° 0 mm 4 mps 743 mmHg 86%
03:00 +11°C° 0 mm 4 mps 743 mmHg 87%
04:00 +10°C° 0 mm 4 mps 743 mmHg 88%
05:00 +10°C° 0 mm 4 mps 743 mmHg 89%
06:00 +11°C° 0 mm 4 mps 743 mmHg 85%
07:00 +11°C° 0 mm 4 mps 743 mmHg 82%
08:00 +12°C° 0 mm 4 mps 743 mmHg 78%
09:00 +14°C° 0 mm 4 mps 743 mmHg 72%
10:00 +15°C° 0 mm 4 mps 743 mmHg 65%
11:00 +16°C° 0 mm 5 mps 744 mmHg 59%
12:00 +17°C° 0.1 mm 4 mps 744 mmHg 60%
13:00 +17°C° 0.1 mm 4 mps 744 mmHg 61%
14:00 +18°C° 0.1 mm 3 mps 744 mmHg 63%
15:00 +17°C° 0.2 mm 3 mps 744 mmHg 68%
16:00 +16°C° 0.2 mm 3 mps 744 mmHg 74%
17:00 +15°C° 0.2 mm 2 mps 744 mmHg 79%
18:00 +14°C° 0.1 mm 2 mps 744 mmHg 82%
19:00 +13°C° 0.1 mm 2 mps 744 mmHg 85%
20:00 +12°C° 0.1 mm 2 mps 744 mmHg 88%
21:00 +10°C° 0 mm 2 mps 744 mmHg 87%
22:00 +10°C° 0 mm 2 mps 745 mmHg 85%
23:00 +10°C° 0 mm 2 mps 745 mmHg 84%

13 August, Thursday

Time Temperature Precipitation Wind Pressure Humidity
00:00 +10°C° 0 mm 2 mps 745 mmHg 84%
01:00 +10°C° 0 mm 2 mps 745 mmHg 84%
02:00 +10°C° 0 mm 2 mps 744 mmHg 84%
03:00 +9°C° 0 mm 2 mps 744 mmHg 85%
04:00 +9°C° 0 mm 2 mps 744 mmHg 86%
05:00 +9°C° 0 mm 2 mps 744 mmHg 86%
06:00 +10°C° 0 mm 2 mps 744 mmHg 82%
07:00 +11°C° 0 mm 3 mps 744 mmHg 77%
08:00 +12°C° 0 mm 3 mps 744 mmHg 73%
09:00 +13°C° 0.1 mm 3 mps 744 mmHg 66%
10:00 +14°C° 0.1 mm 3 mps 744 mmHg 59%
11:00 +15°C° 0.1 mm 4 mps 745 mmHg 52%
12:00 +17°C° 0 mm 3 mps 744 mmHg 50%
13:00 +17°C° 0 mm 3 mps 744 mmHg 49%
14:00 +17°C° 0 mm 3 mps 744 mmHg 47%
15:00 +17°C° 0 mm 3 mps 744 mmHg 51%
16:00 +16°C° 0 mm 3 mps 744 mmHg 55%
17:00 +16°C° 0 mm 2 mps 744 mmHg 58%
18:00 +14°C° 0 mm 2 mps 744 mmHg 65%
19:00 +13°C° 0 mm 2 mps 744 mmHg 73%
20:00 +10°C° 0 mm 2 mps 744 mmHg 80%
21:00 +9°C° 0 mm 2 mps 744 mmHg 83%
22:00 +9°C° 0 mm 2 mps 744 mmHg 86%
23:00 +8°C° 0 mm 2 mps 744 mmHg 90%

14 August, Friday

Time Temperature Precipitation Wind Pressure Humidity
00:00 +8°C° 0 mm 2 mps 744 mmHg 90%
01:00 +8°C° 0 mm 2 mps 744 mmHg 90%
02:00 +8°C° 0 mm 2 mps 744 mmHg 91%
03:00 +9°C° 0 mm 2 mps 744 mmHg 90%
04:00 +9°C° 0 mm 2 mps 744 mmHg 90%
05:00 +9°C° 0 mm 2 mps 744 mmHg 90%
06:00 +10°C° 0 mm 2 mps 744 mmHg 85%
07:00 +13°C° 0 mm 2 mps 744 mmHg 80%
08:00 +14°C° 0 mm 2 mps 744 mmHg 75%
09:00 +15°C° 0.1 mm 2 mps 744 mmHg 71%
10:00 +16°C° 0.1 mm 1 mps 744 mmHg 66%
11:00 +18°C° 0.1 mm 1 mps 744 mmHg 62%
12:00 +18°C° 0.1 mm 2 mps 743 mmHg 59%
13:00 +19°C° 0.1 mm 2 mps 743 mmHg 55%
14:00 +20°C° 0.1 mm 2 mps 743 mmHg 52%
15:00 +19°C° 0 mm 2 mps 742 mmHg 56%
16:00 +19°C° 0 mm 2 mps 742 mmHg 59%
17:00 +19°C° 0 mm 2 mps 742 mmHg 63%
18:00 +17°C° 0 mm 2 mps 742 mmHg 68%
19:00 +16°C° 0 mm 2 mps 741 mmHg 73%
20:00 +14°C° 0 mm 2 mps 741 mmHg 79%
21:00 +14°C° 0.2 mm 2 mps 741 mmHg 84%
22:00 +14°C° 0.2 mm 2 mps 741 mmHg 89%
23:00 +14°C° 0.2 mm 2 mps 740 mmHg 94%

15 August, Saturday

Time Temperature Precipitation Wind Pressure Humidity
00:00 +14°C° 0.5 mm 2 mps 740 mmHg 95%
01:00 +14°C° 0.5 mm 2 mps 740 mmHg 97%
02:00 +14°C° 0.5 mm 2 mps 740 mmHg 98%
03:00 +14°C° 1 mm 2 mps 740 mmHg 98%
04:00 +14°C° 1 mm 2 mps 739 mmHg 98%
05:00 +14°C° 1 mm 3 mps 739 mmHg 98%
06:00 +14°C° 0.2 mm 3 mps 739 mmHg 97%
07:00 +14°C° 0.2 mm 3 mps 739 mmHg 96%
08:00 +16°C° 0.2 mm 3 mps 739 mmHg 95%
09:00 +16°C° 0.4 mm 3 mps 739 mmHg 94%
10:00 +16°C° 0.4 mm 3 mps 739 mmHg 94%
11:00 +16°C° 0.4 mm 2 mps 739 mmHg 93%
12:00 +17°C° 0.3 mm 2 mps 739 mmHg 91%
13:00 +18°C° 0.3 mm 2 mps 739 mmHg 89%
14:00 +18°C° 0.3 mm 2 mps 739 mmHg 86%
15:00 +18°C° 0.9 mm 2 mps 739 mmHg 87%
16:00 +18°C° 0.9 mm 2 mps 739 mmHg 88%
17:00 +18°C° 0.9 mm 2 mps 738 mmHg 89%
18:00 +17°C° 0.7 mm 2 mps 738 mmHg 92%
19:00 +16°C° 0.7 mm 2 mps 738 mmHg 94%
20:00 +15°C° 0.7 mm 2 mps 738 mmHg 97%
21:00 +14°C° 0 mm 2 mps 738 mmHg 97%
22:00 +13°C° 0 mm 1 mps 738 mmHg 98%
23:00 +12°C° 0 mm 1 mps 739 mmHg 98%
Show more